sat.trackr.live / text

‹ back to catalog

HULIANWAN GAOGUI-02 (H*)

NORAD 60327 · 2024-135A

PAYLOAD ACTIVE UNKNOWN

§ Identity

Operator
Country
PRC
Launch date
2024-08-01
Launch site
XICLF
Launch vehicle
Mass (kg)
RCS (m²)

Purposes: comms

External: N2YO · Heavens-Above · Gunter

§ Orbital elements

Epoch: 2026-05-25T02:45:43.460640Z

Period
1,436.11 min
Inclination
0.0428°
Eccentricity
0.0008026
Mean motion
1.00270609 rev/d
Perigee alt
35,753.1 km
Apogee alt
35,820.8 km
Semi-major
42,165.1 km
B*
0.0000e+0
RAAN
353.6107°
Arg perigee
11.7767°
Mean anomaly
71.9414°
Rev number
727

§ Raw data

HULIANWAN GAOGUI-02 (H*)1 60327U 24135A   26145.11508635 -.00000175  00000+0  00000+0 0  99922 60327   0.0428 353.6107 0008026  11.7767  71.9414  1.00270609  7271

JSON: /api/v1/satellites/60327 · /tle

For live sub-satellite position, see the globe view (requires WebGL).

§ Visibility from observer

Set your observer location to see the next 7 days of passes ≥ 10°. The values pass through the URL so the page stays shareable.

No JS? Fill the form by hand. The geolocation button needs JavaScript.